Location: Newark
(51.0500°N, 12.4500°E)
Time: 15:05:20
(UTC+00:00)

Tiros 1 - Pass Details

Date: 19 February 2020
Orbit: 630 x 664 km, 48.4° (Epoch: 08 April)

Event Time Altitude Azimuth Distance (km) Brightness Sun altitude
Rises 03:05:15 0° 228° (SW) 2,916 - -30.4°
Reaches altitude 10° 03:07:42 10° 220° (SW) 2,007 - -30.0°
Maximum altitude 03:11:53 35° 155° (SSE) 1,020 - -29.4°
Exits shadow 03:13:02 30° 124° (SE) 1,124 8.6 -29.2°
Drops below altitude 10° 03:16:05 10° 90° (E) 2,009 10.5 -28.8°
Sets 03:18:33 0° 81° (E) 2,920 11.7 -28.4°
